Regional Weather Roundup
Issued by NWS

Home | Current Version | Previous Version | Graphics & Text | Print | Product List | Glossary On
Versions: 1 2 3 4 5 6 7 8 9 10 11 12 13 14 15 16 17 18 19 20 21 22 23 24 25 26 27 28 29 30 31 32 33 34 35 36 37 38 39 40 41 42 43 44 45 46 47 48 49 50
000
ASUS43 KIND 240559
RWRIN

WEATHER ROUNDUP FOR INDIANA
NATIONAL WEATHER SERVICE INDIANAPOLIS IN
200 AM EDT TUE MAY 24 2016

NOTE: "FAIR" INDICATES FEW OR NO CLOUDS BELOW 12,000 FEET WITH NO
SIGNIFICANT WEATHER AND/OR OBSTRUCTIONS TO VISIBILITY.

* - STATION DOES NOT REPORT WEATHER SUCH AS PRECIPITATION OR FOG.

+ - STATION NOT QUALITY CONTROLLED BY THE NATIONAL WEATHER SERVICE.
    USE DATA WITH CAUTION...ESPECIALLY DEWPOINT AND RELATIVE
    HUMIDITY OBSERVATIONS.

INZ001>003-010>013-019-020-240700-
NORTHWEST INDIANA

CITY           SKY/WX    TMP DP  RH WIND       PRES   REMARKS
RENSSELAER +   CLEAR     63  36  36 S9        29.98S

$$

LMZ046-743>745-240700-
SOUTHERN LAKE MICHIGAN

STATION/POSITION TIME  TEMP    WIND        PRES    WAVE
                       AIR SEA DIR/SP/G            HT
                 (UTC) (F)     (DEG/KT/KT) (MB)    (FT)
BURNS HARBOR     0500   70     160/  9/ 19 1014.9R
MICHIGAN CITY    0500   69     140/ 11/ 13   N/A
5NW MICH CITY    0500   63 57  170/  8/ 10   N/A     1

$$

INZ004-005-014>016-021>024-240700-
NORTH CENTRAL INDIANA

CITY           SKY/WX    TMP DP  RH WIND       PRES   REMARKS
GOSHEN         CLEAR     49  39  68 S3        29.99S
6HR MIN TEMP:  48; 6HR MAX TEMP:  74;

SOUTH BEND     PTCLDY    57  35  43 CALM      29.99F
6HR MIN TEMP:  56; 6HR MAX TEMP:  75;


$$

INZ006>009-017-018-025>027-240700-
NORTHEAST INDIANA

CITY           SKY/WX    TMP DP  RH WIND       PRES   REMARKS
ANGOLA *+      CLEAR     48  46  93 CALM      30.01S
FORT WAYNE     PTCLDY    56  44  64 CALM      30.02S
6HR MIN TEMP:  53; 6HR MAX TEMP:  75;


$$

INZ028-029-035-036-043>045-051>053-240700-
WEST CENTRAL INDIANA

CITY           SKY/WX    TMP DP  RH WIND       PRES   REMARKS
CRAWFORDSVL +  CLEAR     54  45  71 SE6       30.00S
6HR MIN TEMP:  54; 6HR MAX TEMP:  74;

GREENCASTLE +  CLEAR     55  46  71 CALM      30.01F
LAFAYETTE      CLEAR     54  44  69 CALM      29.99R
6HR MIN TEMP:  54; 6HR MAX TEMP:  76;

TERRE HAUTE    PTCLDY    58  47  66 E5        29.99F
6HR MIN TEMP:  57; 6HR MAX TEMP:  75;


$$

INZ030>032-037>040-046>048-054>057-064-065-240700-
CENTRAL INDIANA

CITY           SKY/WX    TMP DP  RH WIND       PRES   REMARKS
INDIANAPOLIS   PTCLDY    62  41  46 SE9       30.00S
6HR MIN TEMP:  62; 6HR MAX TEMP:  72;

-EAGLE CREEK   CLEAR     56  46  69 CALM      30.01S
6HR MIN TEMP:  55; 6HR MAX TEMP:  76;

KOKOMO *+      CLEAR     55  39  54 S8        30.01S
6HR MIN TEMP:  54; 6HR MAX TEMP:  72;

SHELBYVILLE    CLEAR     58  48  69 SE5       30.02S
6HR MIN TEMP:  56; 6HR MAX TEMP:  76;


$$

INZ033-034-041-042-049-050-058-059-240700-
EAST CENTRAL INDIANA

CITY           SKY/WX    TMP DP  RH WIND       PRES   REMARKS
MUNCIE         CLEAR     63  45  51 S7        30.02S
6HR MIN TEMP:  62; 6HR MAX TEMP:  76;


$$

INZ060-061-067>069-081>083-085>088-240700-
SOUTHWEST INDIANA

CITY           SKY/WX    TMP DP  RH WIND       PRES   REMARKS
EVANSVILLE     CLOUDY    60  49  66 CALM      30.00S
6HR MIN TEMP:  60; 6HR MAX TEMP:  77;

HUNTINGBURG *+ CLOUDY    61  45  55 SE7       30.00F
6HR MIN TEMP:  59; 6HR MAX TEMP:  73;


$$

INZ062-063-066-070>080-084-089>092-240700-
SOUTH CENTRAL AND SOUTHEAST INDIANA

CITY           SKY/WX    TMP DP  RH WIND       PRES   REMARKS
BLOOMINGTON    CLEAR     52  47  83 CALM      30.01F
6HR MIN TEMP:  52; 6HR MAX TEMP:  75;

MADISON *+     CLEAR     54  52  94 CALM      30.05S
SEYMOUR +      CLEAR     55  54  94 E3        30.02F

$$




USA.gov is the U.S. government's official web portal to all federal, state and local government web resources and services.